This is the latest recevied weather packets stored in our database for station/object F4FEB-13. If no packets are shown the sender has not sent any weather packets the latest 1 day(s).
| Time | Temp. | Humidity | Pressure | Rain* | Wind** | Luminosity | Snow |
|---|---|---|---|---|---|---|---|
| 1778018357 | 11.11° C | 79% | 1008.8 hPa | 0 mm | 3.13 m/s, 243° | - | - |
| 1778018057 | 11.11° C | 81% | 1008.9 hPa | 0 mm | 2.24 m/s, 236° | - | - |
| 1778017757 | 11.11° C | 80% | 1008.8 hPa | 0 mm | 1.34 m/s, 203° | - | - |
| 1778017462 | 11.11° C | 80% | 1008.9 hPa | 0 mm | 0.45 m/s, 275° | - | - |
| 1778017457 | 11.11° C | 80% | 1008.9 hPa | 0 mm | 0.45 m/s, 275° | - | - |
| 1778017157 | 11.11° C | 80% | 1008.8 hPa | 0 mm | 1.79 m/s, 220° | - | - |
| 1778016857 | 11.11° C | 82% | 1008.8 hPa | 0 mm | 2.68 m/s, 239° | - | - |
| 1778016560 | 10.56° C | 82% | 1008.8 hPa | 0 mm | 0 m/s | - | - |
| 1778016557 | 10.56° C | 82% | 1008.8 hPa | 0 mm | 0 m/s | - | - |
| 1778016257 | 11.11° C | 81% | 1008.8 hPa | 0 mm | 0.45 m/s, 296° | - | - |
| 1778015957 | 11.11° C | 81% | 1008.9 hPa | 0 mm | 0 m/s | - | - |
| 1778015657 | 11.11° C | 81% | 1009 hPa | 0 mm | 1.34 m/s, 243° | - | - |
| 1778015357 | 11.11° C | 81% | 1008.9 hPa | 0 mm | 0.89 m/s, 237° | - | - |
| 1778014760 | 11.11° C | 82% | 1008.9 hPa | 0 mm | 3.58 m/s, 262° | - | - |
| 1778014757 | 11.11° C | 82% | 1008.9 hPa | 0 mm | 3.58 m/s, 262° | - | - |
| 1778014457 | 11.11° C | 81% | 1008.9 hPa | 0 mm | 0.89 m/s, 220° | - | - |
| 1778014157 | 11.67° C | 81% | 1008.9 hPa | 0 mm | 1.34 m/s, 185° | - | - |
| 1778013861 | 11.67° C | 80% | 1008.9 hPa | 0 mm | 1.34 m/s, 203° | - | - |
| 1778013857 | 11.67° C | 80% | 1008.9 hPa | 0 mm | 1.34 m/s, 203° | - | - |
| 1778013557 | 11.67° C | 80% | 1008.8 hPa | 0 mm | 3.13 m/s, 233° | - | - |
| 1778013257 | 11.67° C | 81% | 1008.8 hPa | 0 mm | 2.24 m/s, 210° | - | - |
| 1778012957 | 11.67° C | 81% | 1008.7 hPa | 0 mm | 1.79 m/s, 222° | - | - |
| 1778012657 | 11.67° C | 80% | 1008.8 hPa | 0 mm | 2.68 m/s, 268° | - | - |
| 1778012357 | 11.11° C | 82% | 1008.8 hPa | 0 mm | 2.68 m/s, 254° | - | - |
| 1778012060 | 11.11° C | 84% | 1008.8 hPa | 0 mm | 3.13 m/s, 275° | - | - |
* Rain latest hour (hover to see other rain measurements)
** Current wind speed in m/s (hover to see current wind gust speed)